When you browse on this site, cookies collect data to enhance your experience and personalize the content and advertising you see.
Visit our Privacy Policy to learn more. By continuing to use the site, you agree to this use of cookies and data.
  • în România
  • Lista ţărilor
  • Pe 7 zile
  • Temperatura apei
  • Hartă satelitară
  • Meteo pe hartă
  • Widget-uri
  • user-avatar
    Intrare

    Meteo pe oră la Prutz

    Astăzi, 25 Iunie, Marţi

    Timp Temperatura Precipitaţii Vânt Presiune Umiditate
    00:00 +15°C° 0 mm 1 m/s 639 mmHg 82%
    01:00 +15°C° 0 mm 2 m/s 639 mmHg 78%
    02:00 +15°C° 0 mm 2 m/s 639 mmHg 77%
    03:00 +14°C° 0 mm 2 m/s 639 mmHg 76%
    04:00 +14°C° 0 mm 2 m/s 638 mmHg 75%
    05:00 +16°C° 0 mm 1 m/s 639 mmHg 71%
    06:00 +20°C° 0 mm 1 m/s 640 mmHg 67%
    07:00 +22°C° 0 mm 1 m/s 641 mmHg 62%
    08:00 +24°C° 0 mm 1 m/s 642 mmHg 53%
    09:00 +26°C° 0 mm 1 m/s 643 mmHg 43%
    10:00 +28°C° 0 mm 1 m/s 643 mmHg 34%
    11:00 +29°C° 0 mm 1 m/s 644 mmHg 32%
    12:00 +30°C° 0 mm 2 m/s 644 mmHg 30%
    13:00 +30°C° 0 mm 2 m/s 644 mmHg 28%
    14:00 +30°C° 0 mm 2 m/s 644 mmHg 29%
    15:00 +30°C° 0 mm 3 m/s 644 mmHg 30%
    16:00 +30°C° 0 mm 3 m/s 644 mmHg 31%
    17:00 +28°C° 0 mm 2 m/s 643 mmHg 42%
    18:00 +27°C° 0 mm 2 m/s 643 mmHg 52%
    19:00 +25°C° 0 mm 1 m/s 643 mmHg 62%
    20:00 +23°C° 0 mm 1 m/s 642 mmHg 66%
    21:00 +20°C° 0 mm 1 m/s 642 mmHg 70%
    22:00 +18°C° 0 mm 1 m/s 641 mmHg 75%
    23:00 +18°C° 0 mm 1 m/s 641 mmHg 71%

    Mâine, 26 Iunie, Miercuri

    Timp Temperatura Precipitaţii Vânt Presiune Umiditate
    00:00 +16°C° 0 mm 1 m/s 641 mmHg 67%
    01:00 +16°C° 0 mm 1 m/s 641 mmHg 64%
    02:00 +16°C° 0 mm 1 m/s 641 mmHg 60%
    03:00 +15°C° 0 mm 1 m/s 641 mmHg 57%
    04:00 +15°C° 0 mm 1 m/s 641 mmHg 53%
    05:00 +19°C° 0 mm 1 m/s 642 mmHg 47%
    06:00 +20°C° 0 mm 0 m/s 643 mmHg 42%
    07:00 +23°C° 0 mm 0 m/s 644 mmHg 36%
    08:00 +26°C° 0 mm 1 m/s 645 mmHg 32%
    09:00 +28°C° 0 mm 1 m/s 645 mmHg 28%
    10:00 +29°C° 0 mm 2 m/s 646 mmHg 25%
    11:00 +30°C° 0 mm 2 m/s 646 mmHg 24%
    12:00 +31°C° 0 mm 2 m/s 646 mmHg 24%
    13:00 +31°C° 0 mm 2 m/s 646 mmHg 23%
    14:00 +31°C° 0 mm 2 m/s 646 mmHg 25%
    15:00 +31°C° 0 mm 3 m/s 645 mmHg 26%
    16:00 +31°C° 0 mm 3 m/s 645 mmHg 28%
    17:00 +29°C° 0 mm 2 m/s 645 mmHg 38%
    18:00 +27°C° 0 mm 2 m/s 644 mmHg 48%
    19:00 +26°C° 0 mm 2 m/s 644 mmHg 58%
    20:00 +23°C° 0 mm 1 m/s 643 mmHg 64%
    21:00 +21°C° 0 mm 1 m/s 643 mmHg 69%
    22:00 +16°C° 0 mm 0 m/s 642 mmHg 75%
    23:00 +16°C° 0 mm 0 m/s 642 mmHg 74%

    Poimâine, 27 Iunie, Joi

    Timp Temperatura Precipitaţii Vânt Presiune Umiditate
    00:00 +18°C° 0 mm 1 m/s 642 mmHg 73%
    01:00 +18°C° 0 mm 1 m/s 642 mmHg 73%
    02:00 +16°C° 0 mm 1 m/s 641 mmHg 71%
    03:00 +16°C° 0 mm 1 m/s 641 mmHg 69%
    04:00 +16°C° 0 mm 1 m/s 641 mmHg 68%
    05:00 +19°C° 0 mm 1 m/s 641 mmHg 61%
    06:00 +22°C° 0 mm 1 m/s 642 mmHg 53%
    07:00 +24°C° 0 mm 1 m/s 643 mmHg 46%
    08:00 +26°C° 0 mm 1 m/s 644 mmHg 40%
    09:00 +28°C° 0 mm 1 m/s 644 mmHg 34%
    10:00 +29°C° 0 mm 2 m/s 644 mmHg 28%
    11:00 +29°C° 0 mm 2 m/s 644 mmHg 29%
    12:00 +30°C° 0 mm 3 m/s 644 mmHg 29%
    13:00 +30°C° 0 mm 3 m/s 644 mmHg 30%
    14:00 +30°C° 0 mm 3 m/s 644 mmHg 32%
    15:00 +29°C° 0 mm 3 m/s 643 mmHg 34%
    16:00 +29°C° 0 mm 3 m/s 643 mmHg 37%
    17:00 +27°C° 0 mm 3 m/s 642 mmHg 45%
    18:00 +26°C° 0 mm 2 m/s 642 mmHg 54%
    19:00 +24°C° 0 mm 2 m/s 641 mmHg 63%
    20:00 +22°C° 0.1 mm 1 m/s 641 mmHg 71%
    21:00 +20°C° 0.1 mm 1 m/s 640 mmHg 79%
    22:00 +16°C° 0.1 mm 1 m/s 640 mmHg 87%
    23:00 +16°C° 0 mm 1 m/s 639 mmHg 88%

    28 Iunie, Vineri

    Timp Temperatura Precipitaţii Vânt Presiune Umiditate
    00:00 +15°C° 0 mm 1 m/s 639 mmHg 90%
    01:00 +15°C° 0 mm 1 m/s 639 mmHg 91%
    02:00 +15°C° 0 mm 1 m/s 639 mmHg 92%
    03:00 +15°C° 0 mm 1 m/s 639 mmHg 93%
    04:00 +14°C° 0 mm 1 m/s 638 mmHg 93%
    05:00 +16°C° 0 mm 1 m/s 639 mmHg 89%
    06:00 +19°C° 0 mm 1 m/s 639 mmHg 85%
    07:00 +21°C° 0 mm 1 m/s 640 mmHg 81%
    08:00 +22°C° 0 mm 1 m/s 640 mmHg 68%
    09:00 +24°C° 0 mm 2 m/s 641 mmHg 54%
    10:00 +25°C° 0 mm 2 m/s 641 mmHg 40%
    11:00 +26°C° 0 mm 2 m/s 641 mmHg 39%
    12:00 +26°C° 0 mm 3 m/s 641 mmHg 37%
    13:00 +27°C° 0 mm 3 m/s 641 mmHg 35%
    14:00 +27°C° 0 mm 3 m/s 641 mmHg 36%
    15:00 +27°C° 0 mm 3 m/s 641 mmHg 37%
    16:00 +26°C° 0 mm 3 m/s 641 mmHg 38%
    17:00 +25°C° 0 mm 3 m/s 640 mmHg 46%
    18:00 +23°C° 0 mm 2 m/s 640 mmHg 53%
    19:00 +21°C° 0 mm 2 m/s 640 mmHg 61%
    20:00 +19°C° 0 mm 1 m/s 639 mmHg 70%
    21:00 +16°C° 0 mm 1 m/s 638 mmHg 79%
    22:00 +12°C° 0 mm 0 m/s 638 mmHg 88%
    23:00 +12°C° 0 mm 0 m/s 637 mmHg 87%

    29 Iunie, Sâmbătă

    Timp Temperatura Precipitaţii Vânt Presiune Umiditate
    00:00 +12°C° 0 mm 0 m/s 637 mmHg 86%
    01:00 +13°C° 0 mm 1 m/s 637 mmHg 84%
    02:00 +11°C° 0 mm 0 m/s 637 mmHg 81%
    03:00 +11°C° 0 mm 0 m/s 636 mmHg 77%
    04:00 +11°C° 0 mm 0 m/s 636 mmHg 73%
    05:00 +13°C° 0 mm 0 m/s 637 mmHg 64%
    06:00 +16°C° 0 mm 0 m/s 638 mmHg 54%
    07:00 +19°C° 0 mm 0 m/s 639 mmHg 45%
    08:00 +22°C° 0 mm 1 m/s 640 mmHg 40%
    09:00 +24°C° 0 mm 1 m/s 640 mmHg 35%
    10:00 +26°C° 0 mm 1 m/s 640 mmHg 30%
    11:00 +27°C° 0 mm 1 m/s 641 mmHg 28%
    12:00 +28°C° 0 mm 2 m/s 641 mmHg 27%
    13:00 +29°C° 0 mm 2 m/s 641 mmHg 25%
    14:00 +29°C° 0 mm 2 m/s 641 mmHg 26%
    15:00 +29°C° 0 mm 2 m/s 641 mmHg 27%
    16:00 +29°C° 0 mm 2 m/s 640 mmHg 28%
    17:00 +27°C° 0 mm 2 m/s 640 mmHg 40%
    18:00 +25°C° 0 mm 2 m/s 640 mmHg 51%
    19:00 +24°C° 0 mm 1 m/s 639 mmHg 62%
    20:00 +22°C° 0 mm 1 m/s 639 mmHg 70%
    21:00 +19°C° 0 mm 1 m/s 638 mmHg 77%
    22:00 +15°C° 0 mm 0 m/s 638 mmHg 85%
    23:00 +15°C° 0 mm 1 m/s 638 mmHg 84%

    30 Iunie, Duminică

    Timp Temperatura Precipitaţii Vânt Presiune Umiditate
    00:00 +15°C° 0 mm 1 m/s 637 mmHg 83%
    01:00 +15°C° 0 mm 1 m/s 637 mmHg 82%
    02:00 +15°C° 0 mm 1 m/s 637 mmHg 82%
    03:00 +14°C° 0 mm 1 m/s 637 mmHg 81%
    04:00 +14°C° 0 mm 1 m/s 636 mmHg 81%
    05:00 +16°C° 0 mm 1 m/s 637 mmHg 72%
    06:00 +20°C° 0 mm 1 m/s 638 mmHg 63%
    07:00 +22°C° 0 mm 1 m/s 640 mmHg 54%
    08:00 +24°C° 0 mm 1 m/s 640 mmHg 46%
    09:00 +26°C° 0 mm 1 m/s 641 mmHg 37%
    10:00 +28°C° 0 mm 1 m/s 641 mmHg 28%
    11:00 +28°C° 0 mm 2 m/s 641 mmHg 27%
    12:00 +29°C° 0 mm 2 m/s 641 mmHg 25%
    13:00 +29°C° 0 mm 2 m/s 641 mmHg 24%
    14:00 +29°C° 0 mm 2 m/s 641 mmHg 25%
    15:00 +29°C° 0 mm 2 m/s 641 mmHg 25%
    16:00 +29°C° 0 mm 2 m/s 641 mmHg 26%
    17:00 +28°C° 0 mm 2 m/s 640 mmHg 34%
    18:00 +26°C° 0 mm 2 m/s 640 mmHg 43%
    19:00 +25°C° 0 mm 1 m/s 640 mmHg 52%
    20:00 +22°C° 0 mm 1 m/s 639 mmHg 57%
    21:00 +20°C° 0 mm 1 m/s 639 mmHg 62%
    22:00 +15°C° 0 mm 0 m/s 638 mmHg 67%
    23:00 +16°C° 0 mm 1 m/s 638 mmHg 67%
    Arată mai mult